Weather History for Russellville, AR

Change the Weather History Date:

Thursday, August 29, 2013

  Actual Average (KHOT) Record (KHOT)
Temperature  
Mean Temperature 85 °F -  
Max Temperature 100 °F 91 °F 109 °F (1954)
Min Temperature 70 °F 66 °F 51 °F (1986)
Cooling Degree Days 20    
Growing Degree Days 35 (Base 50)    
Moisture  
Dew Point 67 °F    
Average Humidity 61    
Maximum Humidity 90    
Minimum Humidity 32    
Precipitation  
Precipitation 0.00 in - - ()
Sea Level Pressure  
Sea Level Pressure 30.01 in    
Wind  
Wind Speed 2 mph (WSW)    
Max Wind Speed 8 mph    
Max Gust Speed -    
Visibility 10 miles    
Events      
Averages and records for this station are not official NWS values.
T = Trace of Precipitation, MM = Missing Value Source: NWS Daily Summary

Daily Weather History Graph

Daily Weather History Graph

Search for Another Location

Airport:

Trip Planner

Search our weather history database for the weather conditions in past years. The results will help you decide how hot, cold, wet, or windy it might be!

Date:

Astronomy

Aug. 29, 2013 Rise Set
Actual Time 6:42 AM CDT 7:42 PM CDT
Civil Twilight 6:16 AM CDT 8:09 PM CDT
Nautical Twilight 5:45 AM CDT 8:39 PM CDT
Astronomical Twilight 5:13 AM CDT 9:11 PM CDT
Moon 12:41 AM CDT (8/29) 3:05 PM CDT (8/29)
Length of Visible Light 13h 52m
Length of Day
13h 00m
Last Quarter, 38% of the Moon is Illuminated
Aug 29
Last Quarter
Sep 5
New
Sep 12
First Quarter
Sep 19
Full
Sep 26
Last Quarter

Hourly Weather History & Observations

Time (CDT) Temp. Heat Index Dew Point Humidity Pressure Visibility Wind Dir Wind Speed Gust Speed Precip Events Conditions
12:53 AM 75.9 °F - 69.1 °F 79% 30.03 in 10.0 mi SSE 3.5 mph - N/A   Clear
1:53 AM 73.9 °F - 68.0 °F 82% 30.02 in 10.0 mi Calm Calm - N/A   Clear
2:53 AM 73.0 °F - 68.0 °F 84% 30.03 in 10.0 mi Calm Calm - N/A   Clear
3:53 AM 72.0 °F - 68.0 °F 87% 30.03 in 10.0 mi Calm Calm - N/A   Clear
4:53 AM 71.1 °F - 68.0 °F 90% 30.03 in 10.0 mi Calm Calm - N/A   Clear
5:53 AM 71.1 °F - 66.9 °F 87% 30.04 in 10.0 mi Calm Calm - N/A   Clear
6:53 AM 70.0 °F - 66.9 °F 90% 30.05 in 8.0 mi Calm Calm - N/A   Clear
7:53 AM 73.9 °F - 70.0 °F 87% 30.06 in 10.0 mi Calm Calm - N/A   Clear
8:53 AM 82.0 °F 84.9 °F 68.0 °F 62% 30.07 in 10.0 mi Calm Calm - N/A   Clear
9:53 AM 87.1 °F 89.2 °F 66.0 °F 49% 30.06 in 10.0 mi Calm Calm - N/A   Unknown
10:53 AM 89.1 °F 92.1 °F 66.9 °F 48% 30.06 in 10.0 mi Calm Calm - N/A   Clear
11:53 AM 91.9 °F 95.9 °F 68.0 °F 45% 30.05 in 10.0 mi SSW 3.5 mph - N/A   Mostly Cloudy
12:53 PM 96.1 °F 99.9 °F 66.9 °F 38% 30.03 in 10.0 mi SW 8.1 mph - N/A   Clear
1:53 PM 95.0 °F 99.0 °F 66.9 °F 40% 30.01 in 10.0 mi Calm Calm - N/A   Mostly Cloudy
2:53 PM 98.1 °F 101.8 °F 66.0 °F 35% 29.97 in 10.0 mi West 6.9 mph - N/A   Partly Cloudy
3:53 PM 98.1 °F 101.2 °F 64.9 °F 34% 29.96 in 10.0 mi WSW 5.8 mph - N/A   Scattered Clouds
4:53 PM 100.0 °F 103.6 °F 64.9 °F 32% 29.95 in 10.0 mi Calm Calm - N/A   Mostly Cloudy
5:53 PM 98.1 °F 101.8 °F 66.0 °F 35% 29.94 in 10.0 mi NW 5.8 mph - N/A   Clear
6:53 PM 96.1 °F 99.3 °F 66.0 °F 37% 29.95 in 10.0 mi NW 4.6 mph - N/A   Clear
7:53 PM 88.0 °F 92.1 °F 69.1 °F 53% 29.96 in 10.0 mi Calm Calm - N/A   Clear
8:53 PM 84.0 °F 87.8 °F 69.1 °F 61% 29.97 in 10.0 mi Calm Calm - N/A   Clear
9:53 PM 80.1 °F 82.9 °F 69.1 °F 69% 29.98 in 10.0 mi Calm Calm - N/A   Clear
10:53 PM 79.0 °F - 69.1 °F 72% 29.98 in 10.0 mi Calm Calm - N/A   Clear
11:53 PM 80.1 °F 82.7 °F 68.0 °F 67% 29.97 in 10.0 mi Calm Calm - N/A   Clear